Terug naar catalogus

COSMOS 2251 DEB

ActiefLEO
NORAD 33984·DEBRIS·🇷🇺 Russia

Gelanceerd Jun 16, 1993 vanaf Plesetsk Cosmodrome

Loading…

Volgende Passages (komende 24 uur)

TLE

VersSource: Space-Track

Epoch: Sep 14, 2026, 11:10 UTC

1 33984U 93036FT  26257.46531398  .00002545  00000-0  44243-3 0  9995
2 33984  74.0084 173.6179 0023935 293.2476 188.1032 14.68525487931119

Volg COSMOS 2251 DEB in realtime met AllMySat

Download on the App Store